When you browse on this site, cookies collect data to enhance your experience and personalize the content and advertising you see.
Visit our Privacy Policy to learn more. By continuing to use the site, you agree to this use of cookies and data.
EN

Hourly Weather Golaczewy

Today, 22 September, Tuesday

Time Temperature Precipitation Wind Pressure Humidity
00:00 +14°C° 0 mm 1 mps 727 mmHg 61%
01:00 +14°C° 0 mm 1 mps 727 mmHg 63%
02:00 +14°C° 0 mm 1 mps 727 mmHg 65%
03:00 +13°C° 0 mm 1 mps 727 mmHg 66%
04:00 +13°C° 0 mm 1 mps 726 mmHg 68%
05:00 +14°C° 0 mm 1 mps 727 mmHg 67%
06:00 +15°C° 0 mm 1 mps 727 mmHg 66%
07:00 +16°C° 0 mm 2 mps 727 mmHg 63%
08:00 +18°C° 0 mm 2 mps 727 mmHg 57%
09:00 +20°C° 0 mm 2 mps 727 mmHg 51%
10:00 +23°C° 0 mm 2 mps 727 mmHg 45%
11:00 +24°C° 0 mm 2 mps 727 mmHg 42%
12:00 +25°C° 0 mm 2 mps 726 mmHg 38%
13:00 +26°C° 0 mm 2 mps 726 mmHg 35%
14:00 +26°C° 0 mm 2 mps 726 mmHg 38%
15:00 +25°C° 0 mm 2 mps 725 mmHg 40%
16:00 +25°C° 0 mm 2 mps 725 mmHg 42%
17:00 +23°C° 0 mm 2 mps 725 mmHg 46%
18:00 +20°C° 0 mm 2 mps 724 mmHg 50%
19:00 +18°C° 0 mm 2 mps 724 mmHg 54%
20:00 +18°C° 0 mm 1 mps 724 mmHg 56%
21:00 +18°C° 0 mm 1 mps 723 mmHg 58%
22:00 +16°C° 0 mm 1 mps 723 mmHg 60%
23:00 +16°C° 0 mm 1 mps 723 mmHg 59%

Tomorrow, 23 September, Wednesday

Time Temperature Precipitation Wind Pressure Humidity
00:00 +16°C° 0 mm 1 mps 723 mmHg 59%
01:00 +15°C° 0 mm 1 mps 723 mmHg 59%
02:00 +15°C° 0 mm 1 mps 722 mmHg 59%
03:00 +15°C° 0 mm 2 mps 722 mmHg 58%
04:00 +15°C° 0 mm 2 mps 722 mmHg 58%
05:00 +15°C° 0 mm 2 mps 722 mmHg 58%
06:00 +16°C° 0 mm 2 mps 722 mmHg 57%
07:00 +16°C° 0 mm 2 mps 722 mmHg 56%
08:00 +18°C° 0 mm 3 mps 722 mmHg 53%
09:00 +20°C° 0 mm 3 mps 722 mmHg 49%
10:00 +22°C° 0 mm 3 mps 722 mmHg 45%
11:00 +22°C° 0 mm 3 mps 722 mmHg 49%
12:00 +22°C° 0 mm 3 mps 721 mmHg 53%
13:00 +21°C° 0 mm 3 mps 721 mmHg 57%
14:00 +21°C° 0 mm 2 mps 721 mmHg 58%
15:00 +22°C° 0 mm 1 mps 721 mmHg 59%
16:00 +21°C° 0 mm 1 mps 720 mmHg 60%
17:00 +21°C° 0 mm 1 mps 720 mmHg 62%
18:00 +20°C° 0 mm 1 mps 720 mmHg 65%
19:00 +19°C° 0 mm 1 mps 720 mmHg 67%
20:00 +19°C° 0 mm 1 mps 720 mmHg 69%
21:00 +18°C° 0 mm 1 mps 720 mmHg 71%
22:00 +16°C° 0 mm 1 mps 720 mmHg 74%
23:00 +16°C° 0 mm 1 mps 720 mmHg 74%

Day after tomorrow, 24 September, Thursday

Time Temperature Precipitation Wind Pressure Humidity
00:00 +15°C° 0 mm 1 mps 720 mmHg 74%
01:00 +15°C° 0 mm 1 mps 720 mmHg 75%
02:00 +14°C° 0 mm 0 mps 720 mmHg 75%
03:00 +14°C° 0 mm 0 mps 719 mmHg 75%
04:00 +13°C° 0 mm 0 mps 719 mmHg 75%
05:00 +15°C° 0 mm 1 mps 720 mmHg 73%
06:00 +16°C° 0 mm 1 mps 720 mmHg 71%
07:00 +16°C° 0 mm 1 mps 720 mmHg 69%
08:00 +19°C° 0 mm 1 mps 720 mmHg 63%
09:00 +21°C° 0 mm 1 mps 720 mmHg 57%
10:00 +23°C° 0 mm 2 mps 721 mmHg 51%
11:00 +23°C° 0 mm 2 mps 721 mmHg 50%
12:00 +24°C° 0 mm 2 mps 721 mmHg 49%
13:00 +25°C° 0 mm 3 mps 721 mmHg 48%
14:00 +24°C° 0.1 mm 2 mps 721 mmHg 52%
15:00 +24°C° 0.1 mm 2 mps 720 mmHg 55%
16:00 +23°C° 0.1 mm 2 mps 720 mmHg 58%
17:00 +21°C° 0 mm 2 mps 720 mmHg 63%
18:00 +20°C° 0 mm 2 mps 720 mmHg 69%
19:00 +18°C° 0 mm 2 mps 720 mmHg 74%
20:00 +18°C° 0 mm 2 mps 720 mmHg 76%
21:00 +17°C° 0 mm 2 mps 720 mmHg 78%
22:00 +17°C° 0 mm 2 mps 720 mmHg 80%
23:00 +16°C° 0 mm 1 mps 719 mmHg 81%

25 September, Friday

Time Temperature Precipitation Wind Pressure Humidity
00:00 +16°C° 0 mm 1 mps 719 mmHg 83%
01:00 +15°C° 0 mm 1 mps 719 mmHg 85%
02:00 +15°C° 0 mm 2 mps 718 mmHg 86%
03:00 +15°C° 0 mm 2 mps 717 mmHg 86%
04:00 +15°C° 0 mm 2 mps 717 mmHg 87%
05:00 +14°C° 0 mm 3 mps 716 mmHg 85%
06:00 +14°C° 0 mm 3 mps 716 mmHg 83%
07:00 +16°C° 0 mm 3 mps 715 mmHg 81%
08:00 +18°C° 0 mm 4 mps 715 mmHg 73%
09:00 +20°C° 0 mm 4 mps 715 mmHg 65%
10:00 +22°C° 0 mm 5 mps 715 mmHg 56%
11:00 +22°C° 0 mm 5 mps 714 mmHg 54%
12:00 +23°C° 0 mm 6 mps 714 mmHg 52%
13:00 +23°C° 0 mm 6 mps 713 mmHg 50%
14:00 +22°C° 0.3 mm 5 mps 713 mmHg 58%
15:00 +20°C° 0.3 mm 5 mps 712 mmHg 65%
16:00 +18°C° 0.3 mm 4 mps 712 mmHg 73%
17:00 +18°C° 0.1 mm 4 mps 712 mmHg 74%
18:00 +18°C° 0.1 mm 3 mps 712 mmHg 75%
19:00 +17°C° 0.1 mm 3 mps 712 mmHg 75%
20:00 +17°C° 0.1 mm 2 mps 712 mmHg 79%
21:00 +16°C° 0.1 mm 2 mps 712 mmHg 84%
22:00 +15°C° 0.1 mm 1 mps 712 mmHg 88%
23:00 +15°C° 0.3 mm 2 mps 711 mmHg 89%

26 September, Saturday

Time Temperature Precipitation Wind Pressure Humidity
00:00 +14°C° 0.3 mm 2 mps 711 mmHg 91%
01:00 +13°C° 0.3 mm 3 mps 710 mmHg 93%
02:00 +13°C° 1.4 mm 4 mps 710 mmHg 93%
03:00 +13°C° 1.4 mm 4 mps 709 mmHg 93%
04:00 +13°C° 1.4 mm 5 mps 708 mmHg 93%
05:00 +14°C° 0.2 mm 5 mps 708 mmHg 90%
06:00 +15°C° 0.2 mm 5 mps 708 mmHg 88%
07:00 +15°C° 0.2 mm 5 mps 707 mmHg 85%
08:00 +15°C° 0.2 mm 5 mps 708 mmHg 85%
09:00 +17°C° 0.2 mm 4 mps 708 mmHg 84%
10:00 +17°C° 0.2 mm 4 mps 708 mmHg 84%
11:00 +16°C° 1.9 mm 3 mps 709 mmHg 87%
12:00 +16°C° 1.9 mm 2 mps 709 mmHg 89%
13:00 +15°C° 1.9 mm 1 mps 709 mmHg 92%
14:00 +16°C° 0.2 mm 1 mps 709 mmHg 89%
15:00 +16°C° 0.2 mm 1 mps 710 mmHg 86%
16:00 +16°C° 0.2 mm 1 mps 710 mmHg 83%
17:00 +14°C° 0.1 mm 3 mps 710 mmHg 86%
18:00 +13°C° 0.1 mm 4 mps 710 mmHg 88%
19:00 +12°C° 0.1 mm 5 mps 710 mmHg 91%
20:00 +10°C° 2.3 mm 6 mps 709 mmHg 91%
21:00 +9°C° 2.3 mm 7 mps 709 mmHg 92%
22:00 +7°C° 2.3 mm 8 mps 708 mmHg 93%
23:00 +7°C° 3.5 mm 8 mps 707 mmHg 93%

27 September, Sunday

Time Temperature Precipitation Wind Pressure Humidity
00:00 +7°C° 3.5 mm 8 mps 706 mmHg 93%
01:00 +7°C° 3.5 mm 8 mps 706 mmHg 93%
02:00 +8°C° 1.6 mm 7 mps 705 mmHg 94%
03:00 +9°C° 1.6 mm 5 mps 705 mmHg 94%
04:00 +10°C° 1.6 mm 4 mps 705 mmHg 95%
05:00 +10°C° 0.1 mm 4 mps 705 mmHg 94%
06:00 +10°C° 0.1 mm 4 mps 705 mmHg 93%
07:00 +10°C° 0.1 mm 3 mps 705 mmHg 93%
08:00 +10°C° 0 mm 3 mps 705 mmHg 91%
09:00 +10°C° 0 mm 3 mps 705 mmHg 89%
10:00 +11°C° 0 mm 3 mps 705 mmHg 87%
11:00 +11°C° 0 mm 3 mps 706 mmHg 85%
12:00 +11°C° 0 mm 3 mps 706 mmHg 84%
13:00 +11°C° 0 mm 3 mps 706 mmHg 82%
14:00 +11°C° 0.2 mm 3 mps 706 mmHg 82%
15:00 +10°C° 0.2 mm 3 mps 707 mmHg 82%
16:00 +10°C° 0.2 mm 3 mps 707 mmHg 82%
17:00 +10°C° 0.3 mm 3 mps 708 mmHg 84%
18:00 +9°C° 0.3 mm 2 mps 708 mmHg 86%
19:00 +9°C° 0.3 mm 2 mps 709 mmHg 88%
20:00 +9°C° 0.1 mm 3 mps 709 mmHg 87%
21:00 +8°C° 0.1 mm 3 mps 710 mmHg 85%
22:00 +7°C° 0.1 mm 4 mps 710 mmHg 83%
23:00 +7°C° 0.1 mm 4 mps 711 mmHg 83%
Show more